This is the latest recevied weather packets stored in our database for station/object OE8NDR-11. If no packets are shown the sender has not sent any weather packets the latest 10 day(s).
| Time | Temp. | Humidity | Pressure | Rain* | Wind** | Luminosity | Snow |
|---|---|---|---|---|---|---|---|
| 1777813997 | 20.56° C | 36% | 1016.6 hPa | 0 mm | - | - | - |
| 1777813697 | 20.56° C | 36% | 1016.6 hPa | 0 mm | - | - | - |
| 1777813397 | 20.56° C | 36% | 1016.6 hPa | 0 mm | - | - | - |
| 1777813097 | 20.56° C | 36% | 1016.6 hPa | 0 mm | - | - | - |
| 1777812797 | 20.56° C | 38% | 1016.6 hPa | 0 mm | - | - | - |
| 1777812497 | 20.56° C | 37% | 1016.5 hPa | 0 mm | - | - | - |
| 1777812197 | 20.56° C | 37% | 1016.7 hPa | 0 mm | - | - | - |
| 1777811897 | 20° C | 36% | 1016.6 hPa | 0 mm | - | - | - |
| 1777811597 | 20° C | 37% | 1016.6 hPa | 0 mm | - | - | - |
| 1777811297 | 20° C | 36% | 1017 hPa | 0 mm | - | - | - |
| 1777810997 | 20° C | 36% | 1017 hPa | 0 mm | - | - | - |
| 1777810697 | 20° C | 37% | 1017.1 hPa | 0 mm | - | - | - |
| 1777810397 | 20.56° C | 36% | 1017 hPa | 0 mm | - | - | - |
| 1777810097 | 20° C | 39% | 1017.1 hPa | 0 mm | - | - | - |
| 1777809797 | 20° C | 37% | 1017.2 hPa | 0 mm | - | - | - |
| 1777809497 | 20° C | 38% | 1017.4 hPa | 0 mm | - | - | - |
| 1777809197 | 20° C | 39% | 1017.4 hPa | 0 mm | - | - | - |
| 1777808897 | 19.44° C | 37% | 1017.4 hPa | 0 mm | - | - | - |
| 1777808597 | 19.44° C | 41% | 1017.5 hPa | 0 mm | - | - | - |
| 1777808297 | 19.44° C | 38% | 1017.4 hPa | 0 mm | - | - | - |
| 1777807997 | 19.44° C | 40% | 1017.5 hPa | 0 mm | - | - | - |
| 1777807697 | 19.44° C | 40% | 1017.5 hPa | 0 mm | - | - | - |
| 1777807397 | 19.44° C | 39% | 1017.7 hPa | 0 mm | - | - | - |
| 1777807097 | 19.44° C | 41% | 1017.6 hPa | 0 mm | - | - | - |
| 1777806797 | 19.44° C | 41% | 1017.6 hPa | 0 mm | - | - | - |
* Rain latest hour (hover to see other rain measurements)
** Current wind speed in m/s (hover to see current wind gust speed)